Airfield :







YOU CAN JOIN US ON...

 
LOGIN :

Register | Disclaimer

   EN    FR    IT 

 









Legend :    VFR   Marginal VFR   IFR   Intensive IFR   Very Intensive IFR
Visi :
Ceiling :
>= 8 km
>= 3000ft
5 to 8 km
1000 to 3000 ft
1500m to 5 km
500 to 1000 ft
800 to 1500m
200 to 500 ft
< 800m
< 200 ft
Symbols :   Thunderstorms  Fog  Heavy snow  Heavy precipitations  Wind > 20 kt






- Airport Elevation : 48 ft
- IATA code : REK


BIRK - Reykjavik

CURRENT METAR :
  • 302100Z 15006KT CAVOK 01/M01 Q0992

EXPIRED METARs :
  • 302000Z 19007KT 9999 FEW028 03/00 Q0992
  • 301900Z 21008KT 9999 SCT028 04/M01 Q0992

TAF TAF BIRK
Valid from the 30 at 21:00 until the 01 at 21:00 UTC


301954Z 3021/0121 21008KT 9999 FEW020 SCT040 TX07/0115Z TN01/0104Z
TEMPO 0105/0114 -SHRA SCT018TCU BKN025
BECMG 0106/0108 11013KT



MET'MAP, your aeronautical weather chart ! - Copyright ORBIFLY December 2007 - Disclaimer

ORBIFLY MET'MAP TEAM :

Programming & Development : Alexandra Zaïnal
Concept & original design : Baudouin d'Aumeries
Assistance for programming : Marc-Olivier Méhu
Technical & hardware support : Manuel Goepfert

Contact : metmap@orbifly.com




SOURCES & CREDITS :

   NOAA